Probability
0 0 0 0 0 0 0 0 0 0 0 0 0 0 0 0 0 0 0 0 0 0 0 0 0 0 0 0 0 0 0 0 0 0 0 0 0 0 0 0 0 0 0 0
0 0 0 0 0 0 0 0 0 0 0 0 0 0 0 0 0 0 0 0 0 0 0 0 0 0 0 0 0 0 0 0 0 0 0 0 0 0 0 0 0 0 0 0
0 0 0 0 0 0 0 0 0 0 0 0 0 0 0 0 0 0 0 0 0 0 0 0 0 0 0 0 0 0 0 0 0 0 0 0 0 0 0 0 0 0 0 0
0 0 0 0 0 0 0 0 0 0 0 0 0 0 0 0 0 0 0 0 0 0 0 0 0 0 0 0 0 0 0 0 0 0 0 0 0 0 0 0 0 0 0 0
0 0 0 0 0 0 0 0 0 0 0 0 0 0 0 0 0 0 0 0 0 0 0 0 0 0 0 0 0 0 0 0 0 0 0 0 0 0 0 0 0 0 0 0
0 0 0 0 0 0 0 0 0 0 0 0 0 0 0 0 0 0 0 0 0 0 0 0 0 0 0 0 0 0 0 0 0 0 0 0 0 0 0 0 0 0 0 0
0 0 0 0 0 0 0 0 0 0 0 0 0 0 0 0 0 0 0 0 0 0 0 0 0 0 0 0 0 0 0 0 0 0 0 0 0 0 0 0 0 0 0 0
0 0 0 0 0 0 0 0 0 0 0 0 0 0 0 0 0 0 0 0 0 0 0 0 0 0 0 0 0 0 0 0 0 0 0 0 0 0 0 0 0 0 0 0
0 0 0 0 0 0 0 0 0 0 0 0 0 0 0 0 0 0 0 0 0 0 0 0 0 0 0 0 0 0 0 0 0 0 0 0 0 0 0 0 0 0 0 0
0 0 0 0 0 0 0 0 0 0 0 0 0 0 0 0 0 0 0 0 0 0 0 0 0 0 0 0 0 0 0 0 0 0 0 0 0 0 0 0 0 0 0 0
0 0 0 0 0 0 0 0 0 0 0 0 0 0 0 0 0 0 0 0 0 0 0 0 0 0 0 0 0 0 0 0 0 0 0 0 0 0 0 0 0 0 0 0
0 0 0 0 0 0 0 0 0 0 0 0 0 0 0 0 0 0 0 0 0 0 0 0 0 0 0 0 0 0 0 0 0 0 0 0 0 0 0 0 0 0 0 0
0 0 0 0 0 0 0 0 0 0 0 0 0 0 0 0 0 0 0 0 0 0 0 0 0 0 0 0 0 0 0 0 0 0 0 0 0 0 0 0 0 0 0 0
0 0 0 0 0 0 0 0 0 0 0 0 0 0 0 0 0 0 0 0 0 0 0 0 0 0 0 0 0 0 0 0 0 0 0 0 0 0 0 0 0 0 0 0
0 0 0 0 0 0 0 0 0 0 0 0 0 0 0 0 0 0 0 0 0 0 0 0 0 0 0 0 0 0 0 0 0 0 0 0 0 0 0 0 0 0 0 0
0 0 0 0 0 0 0 0 0 0 0 0 0 0 0 0 0 0 0 0 0 0 0 0 0 0 0 0 0 0 0 0 0 0 0 0 0 0 0 0 0 0 0 0
0 0 0 0 0 0 0 0 0 0 0 0 0 0 0 0 0 0 0 0 0 0 0 0 0 0 0 0 0 0 0 0 0 0 0 0 0 0 0 0 0 0 0 0
0 0 0 0 0 0 0 0 0 0 0 0 0 0 0 0 0 0 0 0 0 0 0 0 0 0 0 0 0 0 0 0 0 0 0 0 0 0 0 0 0 0 0 0
0 0 0 0 0 0 0 0 0 0 0 0 0 0 0 0 0 0 0 0 0 0 0 0 0 0 0 0 0 0 0 0 0 0 0 0 0 0 0 0 0 0 0 0
0 0 0 0 0 0 0 0 0 0 0 0 0 0 0 0 0 0 0 0 0 0 0 0 0 0 0 0 0 0 0 0 0 0 0 0 0 0 0 0 0 0 0 0
0 0 0 0 0 0 0 0 0 0 0 0 0 0 0 0 0 0 0 0 0 0 0 0 0 0 0 0 0 0 0 0 0 0 0 0 0 0 0 0 0 0 0 0
0 0 0 0 0 0 0 0 0 0 0 0 0 0 0 0 0 0 0 0 0 0 0 0 0 0 0 0 0 0 0 0 0 0 0 0 0 0 0 0 0 0 0 0
0 0 0 0 0 0 0 0 0 0 0 0 0 0 0 0 0 0 0 0 0 0 0 0 0 0 0 0 0 0 0 0 0 0 0 0 0 0 0 0 0 0 0 0
0 0 0 0 0 0 0 0 0 0 0 0 0 0 0 0 0 0 0 0 0 0 0 0 0 0 0 0 0 0 0 0 0 0 0 0 0 0 0 0 0 0 0 0
0 0 0 0 0 0 0 0 0 0 0 0 0 0 0 0 0 0 0 0 0 0 0 0 0 0 0 0 0 0 0 0 0 0 0 0 0 0 0 0 0 0 0 0
0 0 0 0 0 0 0 0 0 0 0 0 0 0 0 0 0 0 0 0 0 0 0 0 0 0 0 0 0 0 0 0 0 0 0 0 0 0 0 0 0 0 0 0
0 0 0 0 0 0 0 0 0 0 0 0 0 0 0 0 0 0 0 0 0 0 0 0 0 0 0 0 0 0 0 0 0 0 0 0 0 0 0 0 0 0 0 0
Wind_Speed
8 6 5 7 9 9 11 11 11 11 11 13 7 5 5 3 2 2 2 3 4 4 3 3 3 3 3 3 3 3 3 3 4 3 3 2 2 2 2 2 2 2 2 2
6 5 6 9 11 12 13 11 12 11 15 8 5 3 3 3 3 4 4 3 3 3 3 3 4 3 3 3 3 3 4 4 3 3 2 2 2 2 2 2 2 2 2 3
6 3 4 10 10 11 8 8 9 13 11 3 3 4 4 4 4 5 4 4 3 3 4 4 4 4 4 4 3 3 3 3 3 2 2 2 2 2 2 2 2 2 3 3
3 1 9 7 2 6 7 6 7 6 5 4 6 5 3 3 4 4 4 3 3 3 3 2 2 2 2 2 2 3 3 3 2 2 2 2 2 2 3 2 2 3 3 3
3 5 10 7 2 4 5 5 4 7 7 5 3 2 3 2 2 3 3 3 3 3 3 2 2 1 2 1 2 3 3 3 3 3 3 2 3 3 2 2 2 2 2 3
4 5 7 5 2 1 2 4 3 3 5 3 2 1 5 2 1 2 1 1 1 1 1 1 1 2 2 2 2 4 4 4 3 3 3 4 4 3 2 2 2 2 2 2
7 7 8 5 2 2 3 4 3 2 3 3 4 5 3 1 1 1 1 1 1 1 1 2 2 2 2 2 3 4 2 2 2 3 3 3 2 2 2 1 1 1 2 2
5 6 9 1 3 3 4 3 2 2 2 3 4 3 2 1 1 1 1 0 1 1 1 1 1 2 2 3 3 1 1 1 1 2 2 2 2 1 1 1 1 1 2 3
8 7 2 1 3 2 1 2 3 3 3 2 2 3 2 2 1 1 1 1 1 1 1 1 1 2 3 3 1 1 1 1 1 1 1 1 2 2 1 1 1 2 2 2
4 6 4 3 3 3 3 3 3 3 3 2 3 3 2 2 1 1 1 1 1 1 1 2 2 2 3 2 1 2 2 2 1 1 1 1 1 2 2 2 2 2 2 3
5 5 4 4 4 4 3 3 3 3 3 3 3 3 3 2 2 2 2 2 1 2 2 3 2 2 2 2 2 2 2 2 2 2 2 1 2 2 3 3 4 4 3 3
6 4 4 5 4 3 3 4 4 3 3 2 2 3 2 2 2 2 2 1 1 2 2 3 2 3 3 2 3 3 2 2 2 2 2 2 2 2 4 5 6 7 6 5
6 4 4 4 4 3 3 4 4 3 3 3 3 2 2 2 2 1 1 2 2 3 3 3 2 3 3 2 3 4 4 3 2 2 2 2 2 2 3 3 5 6 7 7
4 2 3 4 4 3 3 3 3 3 3 2 2 1 1 2 2 2 3 3 3 2 3 3 3 4 4 2 3 4 4 4 4 3 3 3 3 3 3 3 3 3 4 6
4 3 5 4 3 2 2 2 3 3 3 3 2 2 1 2 3 4 3 2 2 2 3 3 3 5 3 2 3 4 3 3 3 3 3 3 3 3 3 3 3 4 3 4
3 2 2 2 3 3 2 2 3 4 3 3 3 3 3 3 3 4 3 2 2 3 4 4 5 5 3 2 2 3 3 5 4 3 3 3 3 3 3 3 3 3 4 4
2 3 3 3 4 4 3 3 3 4 4 4 4 4 3 3 3 4 4 4 4 5 5 5 5 4 3 3 3 3 3 3 4 3 3 3 3 3 3 3 4 4 4 5
2 4 4 3 3 4 4 3 3 3 4 4 4 3 3 3 4 5 5 4 4 4 5 5 5 4 3 3 3 3 2 3 3 3 3 3 3 3 3 4 4 5 5 5
3 3 3 3 2 2 3 4 4 4 4 3 3 4 4 4 4 5 4 3 4 5 5 4 6 5 4 4 4 3 3 3 3 3 3 5 4 3 3 4 4 4 5 4
4 3 3 3 3 2 3 4 4 4 4 3 3 4 5 5 4 4 4 4 4 5 5 5 4 4 4 4 4 3 3 4 4 3 3 3 4 4 4 4 4 5 5 5
5 4 4 4 4 4 4 4 4 5 4 3 3 4 5 5 4 3 3 5 5 4 5 7 4 3 3 4 4 3 3 4 4 4 4 4 4 4 4 4 5 5 5 5
4 4 5 4 4 5 5 4 4 4 4 4 4 4 4 5 4 4 5 5 5 6 4 3 3 4 5 5 3 3 3 4 4 3 4 4 4 4 5 5 5 5 5 5
5 4 5 5 5 5 5 5 4 4 4 4 4 4 4 4 3 3 5 4 3 6 4 3 6 8 9 4 2 3 3 4 4 4 4 4 4 5 5 6 5 5 5 5
5 5 5 5 4 4 5 6 5 4 4 4 4 4 4 4 4 3 4 7 8 8 5 6 9 10 8 3 2 3 3 4 4 4 4 4 5 5 5 5 5 5 6 6
5 5 5 5 5 5 5 5 5 4 4 4 4 4 3 3 4 4 4 4 8 8 5 6 9 10 5 3 3 3 4 4 4 4 4 4 5 5 5 5 5 6 5 6
5 4 5 5 5 5 4 4 4 4 4 4 4 3 3 3 4 4 4 4 6 8 6 4 5 6 4 4 4 4 4 5 5 5 4 4 5 5 5 5 7 6 6 6
5 4 4 4 4 4 3 4 4 5 4 4 5 4 4 4 4 4 4 4 4 4 4 4 4 4 4 4 4 4 4 4 4 4 4 5 5 5 5 6 6 5 5 5
Wind_Direction
253 262 248 243 235 211 212 214 223 244 246 262 268 268 272 265 251 241 226 209 202 196 199 201 198 197 198 201 194 184 181 197 213 215 207 198 201 211 217 218 227 223 225 237
270 256 248 261 251 231 231 230 238 256 266 262 264 259 264 252 236 237 236 221 210 205 200 205 210 211 206 207 203 187 192 208 214 206 202 205 211 212 214 224 228 221 227 232
266 282 306 264 233 213 217 215 208 235 249 281 287 271 254 243 229 232 235 220 208 210 212 214 215 210 209 211 195 185 201 212 208 203 209 219 220 215 226 227 223 231 235 233
257 292 243 248 197 194 213 235 222 241 266 269 256 260 248 231 220 234 227 222 221 215 217 224 214 217 211 186 180 191 208 217 212 205 219 220 215 227 232 226 219 227 237 240
212 240 269 292 261 182 194 259 230 237 267 290 305 353 312 273 217 226 227 223 219 210 203 200 206 194 160 178 189 197 214 221 219 207 211 213 223 235 232 221 228 231 237 240
206 230 246 261 292 234 143 276 291 234 256 265 89 329 278 286 241 252 266 249 237 199 161 180 203 153 152 192 203 221 226 227 223 210 205 212 223 228 225 217 227 235 253 247
222 238 260 274 303 104 169 264 315 263 246 196 206 228 259 268 268 243 242 232 183 164 187 216 192 149 166 202 228 237 231 223 222 213 211 213 210 210 210 215 221 241 264 273
196 225 252 297 106 172 235 289 299 293 266 234 244 272 290 279 283 295 308 298 157 154 225 234 175 154 185 236 247 234 189 210 234 227 214 194 186 208 201 188 210 251 267 284
201 219 261 189 220 255 285 294 306 300 291 259 268 277 280 277 271 265 245 243 203 167 226 263 211 180 208 246 232 155 156 223 242 237 205 186 184 195 198 192 211 244 246 267
243 259 273 281 286 299 292 292 304 302 293 273 262 268 270 260 261 268 285 269 229 176 214 255 244 225 220 224 197 174 201 230 224 211 225 210 197 196 201 209 221 239 250 262
250 271 303 296 285 289 306 316 315 311 297 270 257 268 263 262 260 257 274 282 247 214 229 251 251 252 244 219 186 192 216 229 225 215 211 221 232 227 225 226 217 226 237 239
241 240 240 274 294 304 307 307 302 306 316 305 260 256 260 260 261 255 256 264 268 258 247 254 252 257 255 227 196 194 222 230 222 219 219 216 230 281 263 249 259 258 254 253
250 262 249 267 286 289 290 296 303 299 284 294 297 270 257 274 275 269 271 263 254 254 256 258 258 262 258 232 208 210 223 231 224 217 216 217 218 230 280 295 276 266 265 267
252 266 279 279 279 288 285 290 304 311 298 285 283 293 284 291 294 282 270 263 257 258 264 261 260 266 260 230 219 226 228 232 227 220 217 217 219 225 231 252 283 289 277 275
266 246 246 269 299 314 314 324 327 317 317 318 311 299 292 282 277 275 277 278 284 281 272 266 265 271 266 227 225 232 228 226 220 218 217 219 219 224 232 239 252 269 285 288
279 287 283 291 295 303 313 312 303 297 300 302 300 288 274 268 275 283 282 266 259 270 274 270 266 269 264 231 231 238 234 239 235 217 213 217 218 224 233 239 248 256 263 270
290 297 297 299 297 297 289 278 275 280 289 290 286 286 289 294 296 290 284 273 255 255 260 261 265 271 262 238 230 236 235 239 244 237 225 224 224 228 233 239 248 255 260 263
257 261 264 264 273 288 297 298 294 290 282 283 292 292 286 280 278 280 282 287 287 282 271 259 259 264 258 246 236 232 229 230 227 228 233 233 236 231 232 240 250 259 270 274
318 309 308 302 290 280 281 286 286 284 286 292 291 282 276 271 271 278 284 284 280 282 282 271 272 267 258 252 249 231 227 231 237 236 235 249 254 242 240 245 253 257 264 269
330 324 317 311 311 301 292 292 293 292 289 284 285 290 290 286 283 282 278 267 257 257 271 278 274 263 257 253 251 229 226 230 237 243 241 239 244 249 249 252 254 258 261 263
320 318 313 308 306 303 294 292 290 289 292 284 271 273 277 283 283 274 270 280 279 266 270 279 275 265 258 256 253 232 228 233 237 239 242 246 250 254 254 254 256 258 260 262
309 309 305 303 301 300 298 292 284 283 290 288 280 276 279 283 283 275 255 254 271 284 288 277 274 277 279 275 247 235 236 239 243 243 244 246 248 254 256 256 257 259 259 260
305 304 304 300 296 294 298 294 283 277 278 279 279 278 275 273 269 273 284 276 275 288 289 270 279 287 291 286 255 247 246 247 250 249 248 248 248 250 254 257 257 259 260 261
305 304 301 300 301 300 297 295 294 287 278 277 273 268 270 281 283 262 262 291 299 298 288 283 288 289 292 277 252 248 249 252 253 252 251 251 250 251 253 256 258 258 260 261
300 300 302 305 302 293 290 295 300 297 291 287 283 278 269 254 263 280 285 288 296 303 297 296 297 296 290 267 255 254 253 252 255 256 251 255 256 255 256 256 257 260 260 261
301 300 296 291 286 288 293 296 294 293 294 295 295 288 284 279 274 278 282 284 285 294 294 288 287 289 280 269 263 260 258 266 272 266 258 260 261 261 261 261 260 260 260 261
306 304 304 305 303 300 300 298 294 294 294 292 295 294 290 291 290 288 287 287 289 289 287 286 282 277 273 270 267 265 261 259 258 259 260 258 258 259 260 260 261 261 261 261